Location: Fort Wayne
(41.1310°N, 85.1290°W)
Time: 06:19:54
(UTC-04:00)

ISS - Visible Passes

Search period start: 24 October 2014 00:00
Search period end: 02 November 2014 23:00
Orbit: 413 x 416 km, 51.6° (Epoch: 24 October)

Date Brightness Start Highest point End Pass type
(mag) Time Alt. Az. Time Alt. Az. Time Alt. Az.
24 Oct -2.8 19:38:42 10° NW 19:41:55 44° NNE 19:44:04 18° E visible
24 Oct -0.3 21:15:45 10° W 21:16:57 17° W 21:16:57 17° W visible
25 Oct -2.1 20:26:13 10° WNW 20:29:22 40° SW 20:30:14 32° S visible
26 Oct -3.1 19:36:53 10° WNW 19:40:13 74° SW 19:43:31 10° SE visible
27 Oct -0.3 20:25:19 10° W 20:27:16 15° SW 20:29:13 10° SSW visible
28 Oct -1.0 19:35:18 10° WNW 19:38:08 26° SW 19:40:57 10° SSE visible
